Flag for Canada Weather past 2 weeks in Conception Bay South, Newfoundland and Labrador, Canada

Now
28 °F

Chilly.


Feels Like: 17 °F
Forecast: N/A
Wind: 14 mph from Southeast

Location: St. John's

Current Time: Jan 31, 2015 at 6:30:27 PM

Latest Report: Jan 31, 2015 at 5:30 PM


Visibility: 0 mi

Pressure: 29.90 "Hg

Humidity: 100%

Dew point: 28 °F

Location of Conception Bay SouthLocation

Historic Weather in Conception Bay South — Graph

°F

Conception Bay South temperature yesterday

Maximum temperature yesterday: 32 °F (at 12:30 PM)
Minimum temperature yesterday: 25 °F (at 12:30 AM)
Average temperature yesterday: 29 °F

Past Weeks' High & Low Weather Summary

 TemperatureHumidityPressure
High50 °F (Jan 28, 9:30 AM)100% (Jan 16, 4:30 PM)30.58 "Hg (Jan 16, 4:30 PM)
Low10 °F (Jan 18, 6:30 AM)59% (Jan 26, 1:30 PM)29.02 "Hg (Jan 25, 11:30 AM)
Average29 °F89%29.85 "Hg
* Reported Jan 16 4:30 PM — Jan 31 4:30 PM, Conception Bay South, Weather by CustomWeather, © 2014

Note: Actual official high and low records may vary slightly from our data, if they occured in-between our weather recording intervals... More about our weather records

Advertising

Conception Bay South weather history for previous 24 hours

 ConditionsComfort  
Time TempWeatherWind HumidityBarometerVisibility
4:30 PM
Jan 31
28 °FChilly.17 mph100%29.92 "Hg0 mi
3:30 PM28 °FIce fog.17 mph100%29.95 "Hg0 mi
2:30 PM30 °FLow clouds.15 mph93%29.96 "Hg10 mi
1:30 PM30 °FMostly cloudy.16 mph93%29.96 "Hg15 mi
1:16 PM30 °FMostly cloudy.16 mph93%29.97 "Hg12 mi
12:30 PM28 °FLow clouds.17 mph100%29.99 "Hg8 mi
11:30 AM28 °FLow clouds.10 mph100%30.01 "Hg15 mi
10:30 AM30 °FPartly sunny.10 mph93%30.02 "Hg15 mi
9:30 AM30 °FScattered clouds.3 mph93%30.00 "Hg15 mi
8:30 AM27 °FScattered clouds.5 mph100%29.98 "Hg15 mi
7:30 AM25 °FScattered clouds.7 mph100%29.98 "Hg15 mi
6:30 AM25 °FPassing clouds.9 mph100%29.97 "Hg15 mi
5:30 AM27 °FPassing clouds.12 mph93%29.95 "Hg15 mi
4:30 AM27 °FPassing clouds.15 mph93%29.92 "Hg15 mi
3:30 AM27 °FPassing clouds.21 mph100%29.91 "Hg15 mi
2:30 AM27 °FPassing clouds.22 mph100%29.85 "Hg15 mi
1:30 AM27 °FPassing clouds.18 mph100%29.80 "Hg15 mi
12:30 AM27 °FLow clouds.22 mph100%29.77 "Hg15 mi
11:30 PM
Jan 30
28 °FLow clouds.20 mph100%29.74 "Hg15 mi
10:30 PM30 °FLow clouds.28 mph100%29.68 "Hg15 mi
9:30 PM32 °FLight freezing rain. Low clouds.18 mph100%29.62 "Hg15 mi
8:30 PM32 °FLight freezing rain. Low clouds.30 mph100%29.56 "Hg15 mi
7:30 PM32 °FLight freezing rain. Ice fog.20 mph100%29.53 "Hg5 mi
6:30 PM32 °FLight freezing rain. Ice fog.15 mph100%29.50 "Hg4 mi
Weather by CustomWeather, © 2014

See weather overviewHow to use our weather pages